Location: Grand Rapids
(42.9630°N, 85.6680°W)
Time: 01:42:33
(UTC-04:00)

S-56A Canister/Altair - Pass Details

Date: 03 June 2024
Orbit: 637 x 2489 km, 38.9° (Epoch: 21 June)

Event Time Altitude Azimuth Distance (km) Brightness Sun altitude
Rises 04:13:42 0° 234° (SW) 5,954 - -15.8°
Reaches altitude 10° 04:17:31 10° 231° (SW) 5,055 - -15.4°
Exits shadow 04:19:56 17° 228° (SW) 4,506 10.8 -15.1°
Maximum altitude 04:32:03 59° 157° (SSE) 2,713 10.1 -13.7°
Drops below altitude 10° 04:45:04 10° 83° (E) 4,570 12.2 -12.1°
Sets 04:48:19 0° 80° (E) 5,371 12.8 -11.7°
